www.pogodaiklimat.ru

Погода и климат >> Архив погоды >> Россия >> Забайкальский край >> Кыра


АРХИВ ПОГОДЫ в Кыре

Время (UTC), дата Ветер
(напр.,м/с)
 
Видим.   Явления Облачность Т
(С)
Тd
(С)
f
(%)
Тe
(С)
Тes
(С)
Комфортность P
(гПа)
Po
(гПа)
Тmin
(С)
Tmax
(С)
R
(мм)
R24
(мм)
S
(см)
15 11.08 С 2 н/о 3/0
[Ci fib]
+14.7 +11.8 83 +14 +14 1007.8 906.3
18 11.08 С 1 н/о ясно +12.4 +10.4 88 +12 +12 1008.4 906.1
21 11.08 З 1 50 км 8/3 1000 м
[Sc Ac trans Ci fib]
+11.6 +10.0 90 +11 +11 1008.3 905.7
00 12.08 З 2 50 км 10/6 1000 м
[Sc Ac und]
+13.4 +11.4 88 +13 +13 1007.8 906.0 +11.4
03 12.08 штиль 0 50 км 10/4 1000 м
[Sc Ac und]
+17.2 +12.7 75 +17 +20 1005.9 905.5
06 12.08 СЗ 2 4000 м слаб. дождь 10/6 1000 м
[Sc Ac und]
+17.8 +14.2 79 +18 +20 1005.6 905.5
09 12.08 СЗ 2 50 км {дождь} 10/6 1000 м
[Sc Ac und]
+15.7 +9.5 67 +16 +16 1008.0 906.8
12 12.08 С 4
{10}
50 км {дождь} 4/4 1000 м
[Sc diur, vesp]
+13.2 +5.7 60 +12 +12 1010.8 908.4 +19.4 3
15 12.08 З 2 н/о 4/0
[Ac trans Ci fib]
+9.2 +5.1 76 +8 +8 1013.3 909.2
18 12.08 Ю 1 н/о 3/0
[Ci fib]
+5.6 +3.8 88 +4 +4 1014.5 909.0
21 12.08 ЮЗ 2 50 км 4/0
[Ac trans Ci fib]
+4.2 +2.8 91 +1 +1 1015.4 909.3
00 13.08 штиль 0 50 км 3/0
[Ci fib]
+8.4 +5.0 79 +8 +13 1014.3 909.9 +3.7
03 13.08 Ю 1 50 км 1/1 1000 м
[Cu hum]
+16.8 +7.2 53 +18 +31 опасность
простуды
1009.9 908.8
06 13.08 В 2 50 км 3/3 1000 м
[Cb cap]
+19.8 +7.9 46 +21 +30 комфорт 1006.5 906.7
09 13.08 Ю 3 50 км 8/3 1000 м
[Cb cap Ac trans Ci fib]
+20.3 +7.1 42 +22 +23 комфорт 1004.7 905.2
12 13.08 ЮВ 1 50 км 8/4 1000 м
[Sc Ac trans]
+16.0 +8.4 61 +17 +17 1005.6 904.7 +20.9
15 13.08 СЗ 1 н/о в посл. час ливневой дождь 9/4 1000 м
[Cb cap Ac trans]
+13.6 +9.6 77 +14 +14 1006.9 905.1
18 13.08 З 2 н/о {ливн. осадки} 3/0
[Ci fib]
+10.8 +8.4 85 +9 +9 1007.6 904.8
21 13.08 СЗ 1 50 км 1/0
[Ac lent]
+7.9 +6.0 88 +7 +7 1009.1 905.0
00 14.08 З 1 50 км 3/3 1000 м
[Sc]
+12.2 +7.7 74 +12 +15 1007.7 905.3 +7.1 0.0
03 14.08 З 4 50 км 9/4 1000 м
[Cb cap Ac trans]
+16.1 +7.8 58 +15 +18 1006.1 905.2
06 14.08 СЗ 4 50 км 8/3 1000 м
[Cb cap Ac trans]
+18.6 +5.1 41 +19 +22 1004.9 904.8
09 14.08 С 2 50 км 6/3 1000 м
[Cb cap Ci fib]
+19.2 +5.2 40 +20 +23 1004.4 904.6
12 14.08 С 1 50 км 6/3 1000 м
[Sc diur, vesp Cc]
+15.1 +7.5 60 +16 +16 1005.8 904.6 +19.4
15 14.08 штиль 0 н/о 3/0
[Ci fib]
+8.7 +6.2 84 +8 +8 1009.7 905.9
18 14.08 З 2 н/о 3/0
[Ci fib]
+7.3 +5.6 89 +5 +5 1010.5 906.1
21 14.08 С 1 50 км 6/0
[Ac trans Ci fib]
+5.3 +4.0 91 +4 +4 1012.0 906.7
00 15.08 З 2 50 км 6/3 1000 м
[Sc Ac trans Ci]
+9.5 +6.7 83 +8 +10 1011.0 907.4 +5.2
03 15.08 СВ 2 50 км 6/4 1000 м
[Cb cap Ci fib]
+18.4 +7.4 49 +19 +26 1006.5 906.3
06 15.08 С 4
{11}
50 км 6/6 1000 м
[Cb cap]
+20.8 +5.0 36 +22 +25 комфорт 1005.2 905.8
09 15.08 В 4
{10}
50 км 8/5 1000 м
[Cb cap Ac trans]
+18.3 +6.7 47 +18 +19 1006.9 906.6
12 15.08 С 2 50 км 6/3 1000 м
[Cb cap Ac trans]
+14.5 +5.2 54 +14 +14 1010.0 908.1 +21.2
15 15.08 З 2 н/о 3/0
[Ci fib]
+9.4 +5.2 75 +8 +8 1012.1 908.2
18 15.08 ЮЗ 1 н/о ясно +8.2 +4.8 79 +8 +8 1013.0 908.6
21 15.08 З 3 50 км 1/0
[Ac lent]
+7.7 +4.8 82 +5 +5 1012.8 908.2
00 16.08 З 3 50 км 3/3 1000 м
[Sc]
+12.9 +7.1 68 +12 +14 1010.7 908.2 +7.3
03 16.08 СЗ 3 50 км 4/3 1000 м
[Cu med, cong Ci fib]
+19.0 +7.3 47 +20 +27 1007.8 907.6
06 16.08 СЗ 5 50 км 9/6 1000 м
[Cu med, cong Ci sp]
+21.2 +6.3 38 +22 +24 комфорт 1005.6 906.3
09 16.08 С 4
{11}
50 км 6/4 1000 м
[Cu med, cong Ci sp]
+20.5 +4.7 35 +21 +23 комфорт 1005.4 905.9
12 16.08 штиль 0 50 км 9/4 1000 м
[Cb cap Ac trans]
+15.0 +7.7 62 +15 +15 1008.9 907.3 +22.0
15 16.08 З 1 н/о 8/4 1000 м
[Cb cap Ac trans]
+12.8 +7.3 69 +13 +13 1010.0 907.6
18 16.08 З 1 н/о 3/0
[Ac lent]
+8.5 +5.9 84 +8 +8 1011.6 907.5
21 16.08 З 2 50 км ясно +6.6 +4.5 86 +4 +4 1012.4 907.5
00 17.08 З 3
{34}
50 км ясно +10.4 +6.3 76 +8 +11 1011.0 907.6 +5.7
03 17.08 ЮЗ 2 50 км 3/3 1000 м
[Cu med, cong]
+19.2 +7.9 48 +20 +29 1006.0 906.1
06 17.08 ЮЗ 2 50 км 4/3 1000 м
[Cu med, cong Ci fib]
+22.1 +1.6 26 +22 +30 комфорт 1003.3 904.4
09 17.08 ЮЗ 1 50 км 9/3 1000 м
[Cu med, cong Ac trans Cs]
+19.8 +8.0 46 +22 +24 комфорт 1003.2 903.8
12 17.08 ЮЗ 1 50 км 9/3 1000 м
[Cb cap Ac trans Cs]
+16.6 +10.6 68 +17 +17 1004.5 904.0 +22.6
15 17.08 ЮЗ 1 н/о 9/4 1000 м
[Cb cap Ac trans]
+13.8 +9.7 76 +14 +14 1005.8 904.2
18 17.08 Ю 1 н/о 10/4 1000 м
[Sc Ac und]
+12.3 +9.4 82 +12 +12 1006.5 904.3
21 17.08 СЗ 1 50 км 10/4 1000 м
[Sc Ac und]
+10.9 +9.0 88 +11 +11 1007.6 904.8
00 18.08 ЮЗ 1 50 км 10/4 1000 м
[Sc Ac und Cc]
+13.3 +9.6 78 +14 +15 1007.8 905.9 +10.9
03 18.08 ЮВ 1 50 км 4/3 1000 м
[Cu med, cong Ac trans]
+19.4 +10.1 55 +22 +31 комфорт 1005.7 905.9
06 18.08 С 5 50 км 8/6 1000 м
[Cb cap Ac trans]
+20.3 +8.2 46 +21 +23 комфорт 1004.8 905.4
09 18.08 З 1 50 км {гроза} 8/5 1000 м
[Cb cap Ac trans]
+19.1 +10.1 56 +21 +22 комфорт 1005.5 905.7
12 18.08 З 1 20 км слаб. ливневой дождь {гроза} 9/6 1000 м
[Cb cap Ac trans]
+14.2 +11.7 85 +15 +15 1009.1 907.4 +22.5 1

 

Местоположение метеостанции Кыра (Забайкальский край, Россия): широта 49.57 долгота 111.90 высота над уровнем моря 908 м.

В архиве по умолчанию представлена погода в Кыре за последнюю неделю. Архивные данные за месяц целиком и за предыдущие месяцы, начиная с января 2011 года, Вы можете получить, выбрав интересующий диапазон дат из раскрывающегося списка и нажав кнопку "Ввод!".


*Определитесь, кто Вы:
робот инопланетянин человек

Внимание! Время в таблицах - всемирное. Для получения местного времени необходимо прибавить поправку, которая равна 9 ч.

Смотрите также архив погоды в соседних городах и на ближайших метеорологических станциях:

Погода в Мангуте (Забайкальский край, Россия) (52 км)
Погода в Букукуне (Забайкальский край, Россия) (59 км)
Погода в Татаале (Монголия) (87 км)
Погода в Акше (Забайкальский край, Россия) (121 км)
Погода в Биндэре (Монголия) (142 км)
Погода в Дульдурге (Забайкальский край, Россия) (168 км)
Погода в Черемхово (Забайкальский край, Россия) (171 км)
Погода в Дашбалбаре (Монголия) (180 км)
Погода в Баян-Ову (Монголия) (200 км)
Погода в Улетах (Забайкальский край, Россия) (201 км)

Пояснения к столбцам:

Ветер - указаны скорость ветра в м/с - средняя за 10 мин, порывы в срок и между сроками (в фигурных скобках) и направление, откуда дует ветер: С - северный, СВ - северо-восточный, В - восточный, ЮВ - юго-восточный, Ю - южный, ЮЗ - юго-западный, З - западный, СЗ - северо-западный.
Видимость - горизонтальная дальность видимости в метрах или километрах. При видимости от 1 до 10 км при отсутствии осадков обычно наблюдается дымка, при ухудшении видимости до 1 км и менее - туман. В сухую погоду видимость может ухудшаться дымом, пылью или мглою.
Явления - указаны атмосферные явления, наблюдавшиеся в срок или в последний час перед сроком; фигурными скобками обозначены явления, наблюдавшиеся между сроками (за 1-3 часа до срока); квадратными скобками обозначены град или гололедные отложения с указанием их диаметра в мм.
Облачность - указаны через наклонную черту общая и нижняя облачность в баллах и высота нижней границы облаков в метрах; квадратными скобками обозначены формы облаков: Ci - перистые, Cs - перисто-слоистые, Cc - перисто-кучевые, Ac - высококучевые, As - высокослоистые, Sc - слоисто-кучевые, Ns - слоисто-дождевые, Cu - кучевые, Cb - кучево-дождевые. Подробнее классификацию облаков см. в Атласе облаков (PDF).
T - Температура воздуха - температура, измеренная на высоте 2 м над землей.
Td - Температура точки росы - температура, при понижении до которой содержащийся в воздухе водяной пар достигнет насыщения.
f - Относительная влажность воздуха - влажноcть воздуха, измеренная на высоте 2 м над землей.
Te - Эффективная температура - температура, которую ощущает одетый по сезону человек в тени. Характеристика душности погоды. При расчете учитывается влияние влажности воздуха и скорости ветра на теплоощущения человека.
Tes - Эффективная температура на солнце - температура, которую ощущает человек, с поправкой на солнечный нагрев. Характеристика знойности погоды. Зависит от высоты солнца над горизонтом, облачности и скорости ветра. Ночью, в пасмурную погоду, а также при ветре 12 м/с и более поправка равна нулю.
P - Атмосферное давление - приведенное к уровню моря атмосферное давление.
Po - Атмосферное давление - измеренное на уровне метеостанции атмосферное давление.
Tmin - Минимальная температура - минимум температуры воздуха на высоте 2 м над землей.
Tmax - Максимальная температура - максимум температуры воздуха на высоте 2 м над землей.
R - Количество осадков - Количество выпавших осадков за период времени, мм. При наведении курсора мыши на число - период времени, за который выпало указанное количество осадков.
R24 - Количество осадков - Количество выпавших осадков за 24 часа, мм.
S - Снежный покров - Высота снежного покрова, см. При наведении курсора мыши на число - состояние снежного покрова и степень покрытия местности в баллах.